Clarksdale Fletcher Field Air, MS

3:11 PM CST on December 06, 2019 (GMT -0600)
Fletcher

Weather History for KCKM - November, 2019

Change the Weather History Date:

Wednesday, November 13, 2019

  Actual Average (KUOX) Record (KUOX)
Temperature  
Mean Temperature 30 °F -  
Max Temperature 42 °F 62 °F 84 °F (1955)
Min Temperature 17 °F 35 °F 20 °F (1976)
Degree Days  
Heating Degree Days 36    
Moisture  
Dew Point 20 °F    
Average Humidity 71    
Maximum Humidity 93    
Minimum Humidity 39    
Precipitation  
Precipitation 0.00 in - - ()
Sea Level Pressure  
Sea Level Pressure 30.33 in    
Wind  
Wind Speed 3 mph ()    
Max Wind Speed 9 mph    
Max Gust Speed -    
Visibility 10.0 miles    
Events      
Averages and records for this station are not official NWS values.
T = Trace of Precipitation, MM = Missing Value Source: Averaged Metar Reports

Daily Weather History Graph

Daily Weather History Graph

Search for Another Location

Airport or City:

Astronomy

Nov. 13, 2019 Rise Set
Actual Time 6:33 AM CST 4:59 PM CST
Civil Twilight 6:06 AM CST 5:25 PM CST
Nautical Twilight 5:36 AM CST 5:55 PM CST
Astronomical Twilight 5:06 AM CST 6:25 PM CST
Moon 6:04 PM CST (11/13) 7:25 AM CST (11/13)
Length of Visible Light 11h 19m
Length of Day
10h 26m
Full, 99% of the Moon is Illuminated
Nov 13
Full
Nov 19
Last Quarter
Nov 26
New
Dec 4
First Quarter
Dec 11
Full

Hourly Weather History & Observations

Time (CST) Temp. Windchill Dew Point Humidity Pressure Visibility Wind Dir Wind Speed Gust Speed Precip Events Conditions
12:15 AM 21.2 °F 12.6 °F 15.8 °F 80% 30.45 in 10.0 mi NNE 6.9 mph - N/A   Unknown
12:35 AM 21.2 °F 12.6 °F 15.8 °F 80% 30.44 in 10.0 mi NE 6.9 mph - N/A   Unknown
12:55 AM 21.2 °F 10.9 °F 15.8 °F 80% 30.43 in 10.0 mi NE 9.2 mph - N/A   Unknown
1:15 AM 21.2 °F 13.6 °F 15.8 °F 80% 30.43 in 10.0 mi NNE 5.8 mph - N/A   Unknown
2:15 AM 21.2 °F 12.6 °F 15.8 °F 80% 30.41 in 10.0 mi NNE 6.9 mph - N/A   Unknown
2:35 AM 19.4 °F 11.5 °F 15.8 °F 86% 30.41 in 10.0 mi NNE 5.8 mph - N/A   Unknown
2:55 AM 19.4 °F 12.8 °F 15.8 °F 86% 30.41 in 10.0 mi NNE 4.6 mph - N/A   Unknown
3:15 AM 19.4 °F 10.4 °F 15.8 °F 86% 30.40 in 10.0 mi NNE 6.9 mph - N/A   Unknown
3:55 AM 19.4 °F - 14.0 °F 80% 30.40 in 10.0 mi Calm Calm - N/A   Unknown
4:15 AM 19.4 °F 14.3 °F 14.0 °F 80% 30.40 in 10.0 mi ENE 3.5 mph - N/A   Unknown
4:35 AM 19.4 °F - 15.8 °F 86% 30.40 in 10.0 mi Calm Calm - N/A   Unknown
4:55 AM 19.4 °F - 15.8 °F 86% 30.40 in 10.0 mi Calm Calm - N/A   Unknown
5:15 AM 17.6 °F - 15.8 °F 93% 30.41 in 10.0 mi Calm Calm - N/A   Unknown
5:55 AM 17.6 °F - 15.8 °F 93% 30.42 in 10.0 mi Calm Calm - N/A   Unknown
6:15 AM 17.6 °F - 15.8 °F 93% 30.43 in 10.0 mi Calm Calm - N/A   Unknown
6:35 AM 17.6 °F - 15.8 °F 93% 30.42 in 10.0 mi Calm Calm - N/A   Unknown
6:55 AM 17.6 °F - 15.8 °F 93% 30.42 in 10.0 mi Calm Calm - N/A   Unknown
7:15 AM 19.4 °F - 17.6 °F 93% 30.42 in 10.0 mi Calm Calm - N/A   Unknown
7:35 AM 21.2 °F - 15.8 °F 80% 30.42 in 10.0 mi Calm Calm - N/A   Unknown
7:55 AM 21.2 °F - 15.8 °F 80% 30.42 in 10.0 mi Calm Calm - N/A   Unknown
8:15 AM 23.0 °F - 15.8 °F 74% 30.43 in 10.0 mi Calm Calm - N/A   Unknown
8:35 AM 23.0 °F - 15.8 °F 74% 30.43 in 10.0 mi Calm Calm - N/A   Unknown
8:55 AM 24.8 °F - 15.8 °F 69% 30.44 in 10.0 mi Calm Calm - N/A   Unknown
9:15 AM 24.8 °F - 15.8 °F 69% 30.42 in 10.0 mi Calm Calm - N/A   Unknown
9:35 AM 26.6 °F 21.2 °F 15.8 °F 64% 30.42 in 10.0 mi East 4.6 mph - N/A   Unknown
9:55 AM 28.4 °F 22.2 °F 15.8 °F 59% 30.41 in 10.0 mi Variable 5.8 mph - N/A   Unknown
10:15 AM 28.4 °F 20.4 °F 15.8 °F 59% 30.40 in 10.0 mi East 8.1 mph - N/A   Unknown
10:35 AM 30.2 °F 23.4 °F 17.6 °F 60% 30.39 in 10.0 mi East 6.9 mph - N/A   Unknown
10:55 AM 32.0 °F 24.8 °F 17.6 °F 55% 30.37 in 10.0 mi ESE 8.1 mph - N/A   Unknown
11:15 AM 33.8 °F 28.6 °F 17.6 °F 52% 30.36 in 10.0 mi East 5.8 mph - N/A   Unknown
11:35 AM 33.8 °F 28.6 °F 17.6 °F 52% 30.35 in 10.0 mi ENE 5.8 mph - N/A   Unknown
11:55 AM 35.6 °F 31.7 °F 17.6 °F 48% 30.34 in 10.0 mi ENE 4.6 mph - N/A   Unknown
12:15 PM 35.6 °F 31.7 °F 17.6 °F 48% 30.32 in 10.0 mi Variable 4.6 mph - N/A   Unknown
12:35 PM 37.4 °F 33.8 °F 17.6 °F 45% 30.29 in 10.0 mi ENE 4.6 mph - N/A   Unknown
12:55 PM 37.4 °F 32.8 °F 17.6 °F 45% 30.27 in 10.0 mi East 5.8 mph - N/A   Unknown
1:15 PM 39.2 °F - 15.8 °F 39% 30.27 in 10.0 mi Calm Calm - N/A   Unknown
1:35 PM 39.2 °F - 15.8 °F 39% 30.26 in 10.0 mi Calm Calm - N/A   Unknown
1:55 PM 41.0 °F - 19.4 °F 42% 30.25 in 10.0 mi Calm Calm - N/A   Unknown
2:15 PM 41.0 °F - 19.4 °F 42% 30.23 in 10.0 mi Calm Calm - N/A   Unknown
2:35 PM 41.0 °F - 19.4 °F 42% 30.24 in 10.0 mi Calm Calm - N/A   Unknown
2:55 PM 42.8 °F 40.1 °F 19.4 °F 39% 30.24 in 10.0 mi WSW 4.6 mph - N/A   Unknown
3:15 PM 42.8 °F - 19.4 °F 39% 30.23 in 10.0 mi Calm Calm - N/A   Unknown
3:35 PM 42.8 °F - 19.4 °F 39% 30.23 in 10.0 mi Calm Calm - N/A   Unknown
4:55 PM 37.4 °F - 24.8 °F 60% 30.21 in 10.0 mi Calm Calm - N/A   Unknown
5:15 PM 37.4 °F - 24.8 °F 60% 30.21 in 10.0 mi Calm Calm - N/A   Unknown
5:55 PM 35.6 °F - 24.8 °F 65% 30.22 in 10.0 mi Calm Calm - N/A   Unknown
6:55 PM 33.8 °F - 24.8 °F 70% 30.22 in 10.0 mi Calm Calm - N/A   Unknown
7:15 PM 33.8 °F - 26.6 °F 75% 30.23 in 10.0 mi Calm Calm - N/A   Unknown
7:35 PM 33.8 °F - 26.6 °F 75% 30.23 in 10.0 mi Calm Calm - N/A   Unknown
8:15 PM 33.8 °F - 28.4 °F 81% 30.22 in 10.0 mi Calm Calm - N/A   Unknown
8:55 PM 33.8 °F - 28.4 °F 81% 30.23 in 10.0 mi Calm Calm - N/A   Unknown
9:15 PM 32.0 °F - 28.4 °F 87% 30.24 in - Calm Calm - N/A   Unknown
9:35 PM 32.0 °F - 30.2 °F 93% 30.25 in 10.0 mi Calm Calm - N/A   Unknown
10:15 PM 33.8 °F - 28.4 °F 81% 30.25 in 10.0 mi Calm Calm - N/A   Unknown
10:35 PM 33.8 °F - 30.2 °F 87% 30.25 in 10.0 mi Calm Calm - N/A   Unknown
10:55 PM 33.8 °F - 32.0 °F 93% 30.26 in 10.0 mi Calm Calm - N/A   Unknown
11:15 PM 33.8 °F - 32.0 °F 93% 30.26 in 10.0 mi Calm Calm - N/A   Unknown
11:35 PM 33.8 °F - 32.0 °F 93% 30.25 in 10.0 mi Calm Calm - N/A   Unknown
11:55 PM 33.8 °F - 32.0 °F 93% 30.24 in 10.0 mi Calm Calm - N/A   Unknown